PRLFR SBPS-SBBH

Flight info

Callsign PRLFR
Flight time 1h 36m
Altitude 28000
Route EDRAG UZ57 NIPDA
Aircraft TBM8/L-SDE3GHIJ2J3J5M1RVWXYZ/LB1

Departure

Time 2026-04-28 00:16
Airport Porto Seguro International Airport (SBPS)

Arrival

Time 2026-04-28 01:52
Airport Pampulha - Carlos Drummond de Andrade Airport (SBBH)
Time Latitude Longitude Altitude Speed Heading
2026-04-27 23:29 -16.43878 -39.07631 189 ft 0 kts 341°
2026-04-27 23:40 -16.43879 -39.07630 189 ft 0 kts 341°
2026-04-27 23:40 -16.43878 -39.07630 189 ft 0 kts 340°
2026-04-27 23:41 -16.43877 -39.07631 189 ft 0 kts 334°
2026-04-27 23:41 -16.43874 -39.07633 189 ft 1 kts 334°
2026-04-27 23:41 -16.43870 -39.07635 189 ft 1 kts 323°
2026-04-27 23:41 -16.43863 -39.07638 193 ft 1 kts 348°
2026-04-27 23:42 -16.43854 -39.07638 191 ft 1 kts
2026-04-27 23:42 -16.43846 -39.07637 195 ft 0 kts 347°
2026-04-27 23:42 -16.43843 -39.07639 193 ft 0 kts 333°
2026-04-27 23:42 -16.43840 -39.07640 192 ft 0 kts 342°
2026-04-27 23:43 -16.43839 -39.07640 196 ft 0 kts 342°
2026-04-28 00:09 -16.43839 -39.07641 189 ft 1 kts 342°
2026-04-28 00:09 -16.43835 -39.07642 189 ft 0 kts 344°
2026-04-28 00:09 -16.43829 -39.07644 190 ft 4 kts 343°
2026-04-28 00:09 -16.43797 -39.07653 192 ft 5 kts 345°
2026-04-28 00:10 -16.43755 -39.07671 191 ft 10 kts 302°
2026-04-28 00:10 -16.43767 -39.07780 190 ft 20 kts 253°
2026-04-28 00:10 -16.43812 -39.07948 196 ft 28 kts 254°
2026-04-28 00:10 -16.43870 -39.08136 189 ft 22 kts 249°
2026-04-28 00:11 -16.43894 -39.08247 188 ft 14 kts 254°
2026-04-28 00:11 -16.43917 -39.08344 193 ft 14 kts 255°
2026-04-28 00:11 -16.43951 -39.08466 187 ft 22 kts 257°
2026-04-28 00:11 -16.43996 -39.08647 188 ft 29 kts 256°
2026-04-28 00:12 -16.44053 -39.08850 189 ft 22 kts 254°
2026-04-28 00:12 -16.44070 -39.08951 190 ft 9 kts 288°
2026-04-28 00:12 -16.44072 -39.08998 200 ft 8 kts 188°
2026-04-28 00:12 -16.44088 -39.08973 193 ft 4 kts 82°
2026-04-28 00:13 -16.44085 -39.08959 193 ft 0 kts 76°
2026-04-28 00:15 -16.44049 -39.08832 189 ft 45 kts 75°
2026-04-28 00:15 -16.43922 -39.08350 190 ft 92 kts 74°
2026-04-28 00:15 -16.43716 -39.07582 219 ft 124 kts 69°
2026-04-28 00:15 -16.43430 -39.06726 637 ft 122 kts 70°
2026-04-28 00:16 -16.43154 -39.05872 1068 ft 126 kts 70°
2026-04-28 00:16 -16.42835 -39.05039 1474 ft 128 kts 68°
2026-04-28 00:16 -16.42588 -39.04174 1874 ft 133 kts 81°
2026-04-28 00:16 -16.42685 -39.03197 2236 ft 141 kts 106°
2026-04-28 00:17 -16.43259 -39.02302 2461 ft 161 kts 131°
2026-04-28 00:17 -16.44248 -39.01725 2732 ft 172 kts 162°
2026-04-28 00:17 -16.45466 -39.01758 3025 ft 179 kts 193°
2026-04-28 00:17 -16.46683 -39.02064 3346 ft 180 kts 183°
2026-04-28 00:18 -16.47943 -39.02112 3676 ft 179 kts 178°
2026-04-28 00:18 -16.49193 -39.02126 4015 ft 178 kts 179°
2026-04-28 00:18 -16.50428 -39.02157 4357 ft 176 kts 179°
2026-04-28 00:18 -16.51637 -39.02185 4696 ft 174 kts 179°
2026-04-28 00:19 -16.52852 -39.02213 5036 ft 172 kts 179°
2026-04-28 00:19 -16.54042 -39.02240 5368 ft 171 kts 180°
2026-04-28 00:19 -16.55230 -39.02267 5702 ft 169 kts 180°
2026-04-28 00:19 -16.56401 -39.02294 6039 ft 168 kts 180°
2026-04-28 00:20 -16.57583 -39.02321 6388 ft 167 kts 180°
2026-04-28 00:20 -16.58740 -39.02347 6709 ft 167 kts 180°
2026-04-28 00:20 -16.59893 -39.02374 7034 ft 166 kts 180°
2026-04-28 00:20 -16.61044 -39.02400 7357 ft 165 kts 180°
2026-04-28 00:21 -16.62200 -39.02486 7680 ft 165 kts 193°
2026-04-28 00:21 -16.63152 -39.03098 7991 ft 165 kts 229°
2026-04-28 00:21 -16.63816 -39.04068 8329 ft 164 kts 234°
2026-04-28 00:21 -16.64512 -39.05024 8681 ft 163 kts 231°
2026-04-28 00:22 -16.65218 -39.05945 9022 ft 162 kts 231°
2026-04-28 00:22 -16.65919 -39.06860 9368 ft 162 kts 231°
2026-04-28 00:22 -16.66621 -39.07772 9721 ft 161 kts 231°
2026-04-28 00:22 -16.67325 -39.08685 10061 ft 160 kts 231°
2026-04-28 00:23 -16.68012 -39.09580 10373 ft 158 kts 230°
2026-04-28 00:23 -16.68474 -39.10179 10584 ft 158 kts 231°
2026-04-28 00:23 -16.69162 -39.11073 10905 ft 157 kts 230°
2026-04-28 00:23 -16.69843 -39.11995 11172 ft 160 kts 233°
2026-04-28 00:24 -16.70514 -39.12942 11386 ft 167 kts 233°
2026-04-28 00:24 -16.71215 -39.13931 11600 ft 174 kts 233°
2026-04-28 00:24 -16.71949 -39.14964 11824 ft 180 kts 233°
2026-04-28 00:24 -16.72969 -39.16398 12122 ft 189 kts 233°
2026-04-28 00:25 -16.73498 -39.17142 12273 ft 193 kts 233°
2026-04-28 00:25 -16.74312 -39.18286 12496 ft 198 kts 233°
2026-04-28 00:25 -16.75135 -39.19443 12719 ft 202 kts 233°
2026-04-28 00:25 -16.75982 -39.20632 12967 ft 205 kts 233°
2026-04-28 00:26 -16.76838 -39.21831 13236 ft 206 kts 233°
2026-04-28 00:26 -16.77702 -39.23040 13519 ft 207 kts 233°
2026-04-28 00:26 -16.78565 -39.24247 13799 ft 208 kts 233°
2026-04-28 00:26 -16.79422 -39.25447 14044 ft 209 kts 233°
2026-04-28 00:27 -16.80293 -39.26669 14297 ft 209 kts 233°
2026-04-28 00:27 -16.81164 -39.27894 14539 ft 209 kts 233°
2026-04-28 00:27 -16.82062 -39.29070 14792 ft 209 kts 224°
2026-04-28 00:27 -16.83213 -39.29999 15053 ft 208 kts 210°
2026-04-28 00:28 -16.84409 -39.30858 15295 ft 209 kts 223°
2026-04-28 00:28 -16.85331 -39.32035 15549 ft 210 kts 233°
2026-04-28 00:28 -16.86195 -39.33260 15808 ft 209 kts 231°
2026-04-28 00:28 -16.87101 -39.34450 16070 ft 209 kts 230°
2026-04-28 00:29 -16.87770 -39.35776 16310 ft 209 kts 255°
2026-04-28 00:29 -16.88030 -39.37267 16575 ft 208 kts 261°
2026-04-28 00:29 -16.88269 -39.38751 16843 ft 208 kts 259°
2026-04-28 00:29 -16.88550 -39.40234 17114 ft 207 kts 258°
2026-04-28 00:30 -16.88834 -39.41704 17384 ft 207 kts 258°
2026-04-28 00:30 -16.89113 -39.43176 17659 ft 206 kts 258°
2026-04-28 00:30 -16.89390 -39.44643 17933 ft 205 kts 258°
2026-04-28 00:30 -16.89665 -39.46098 18212 ft 204 kts 258°
2026-04-28 00:31 -16.89942 -39.47561 18469 ft 203 kts 258°
2026-04-28 00:31 -16.90213 -39.48994 18711 ft 202 kts 258°
2026-04-28 00:31 -16.90483 -39.50422 18951 ft 201 kts 258°
2026-04-28 00:31 -16.90754 -39.51853 19195 ft 199 kts 259°
2026-04-28 00:32 -16.91023 -39.53278 19447 ft 198 kts 258°
2026-04-28 00:32 -16.91286 -39.54669 19689 ft 196 kts 259°
2026-04-28 00:32 -16.91550 -39.56065 19938 ft 195 kts 259°
2026-04-28 00:32 -16.91810 -39.57442 20185 ft 193 kts 259°
2026-04-28 00:33 -16.92069 -39.58822 20441 ft 191 kts 259°
2026-04-28 00:33 -16.92327 -39.60189 20629 ft 192 kts 259°
2026-04-28 00:33 -16.92584 -39.61560 20815 ft 194 kts 260°
2026-04-28 00:33 -16.92844 -39.62954 21007 ft 195 kts 260°
2026-04-28 00:34 -16.93106 -39.64346 21199 ft 197 kts 260°
2026-04-28 00:34 -16.93370 -39.65747 21394 ft 198 kts 260°
2026-04-28 00:34 -16.93638 -39.67170 21592 ft 199 kts 260°
2026-04-28 00:34 -16.93904 -39.68586 21785 ft 200 kts 260°
2026-04-28 00:35 -16.94173 -39.70021 21984 ft 201 kts 260°
2026-04-28 00:35 -16.94442 -39.71455 22180 ft 201 kts 261°
2026-04-28 00:35 -16.94712 -39.72887 22380 ft 202 kts 261°
2026-04-28 00:35 -16.94980 -39.74321 22578 ft 202 kts 261°
2026-04-28 00:36 -16.95252 -39.75769 22781 ft 202 kts 261°
2026-04-28 00:36 -16.95522 -39.77210 22986 ft 201 kts 261°
2026-04-28 00:36 -16.95791 -39.78641 23194 ft 201 kts 261°
2026-04-28 00:36 -16.96058 -39.80067 23397 ft 200 kts 261°
2026-04-28 00:37 -16.96325 -39.81495 23602 ft 199 kts 262°
2026-04-28 00:37 -16.96589 -39.82905 23776 ft 198 kts 261°
2026-04-28 00:37 -16.96853 -39.84318 23947 ft 197 kts 261°
2026-04-28 00:37 -16.97112 -39.85704 24120 ft 195 kts 261°
2026-04-28 00:38 -16.97375 -39.87112 24282 ft 194 kts 261°
2026-04-28 00:38 -16.97632 -39.88487 24433 ft 194 kts 261°
2026-04-28 00:38 -16.97898 -39.89874 24588 ft 194 kts 258°
2026-04-28 00:38 -16.98531 -39.91108 24762 ft 195 kts 230°
2026-04-28 00:39 -16.99460 -39.92125 24918 ft 194 kts 227°
2026-04-28 00:39 -17.00380 -39.93167 25037 ft 195 kts 229°
2026-04-28 00:39 -17.01285 -39.94234 25142 ft 197 kts 230°
2026-04-28 00:39 -17.02207 -39.95319 25233 ft 201 kts 230°
2026-04-28 00:40 -17.03144 -39.96418 25330 ft 204 kts 230°
2026-04-28 00:40 -17.04101 -39.97540 25427 ft 207 kts 230°
2026-04-28 00:40 -17.05066 -39.98671 25513 ft 210 kts 230°
2026-04-28 00:40 -17.06045 -39.99820 25617 ft 213 kts 230°
2026-04-28 00:41 -17.07037 -40.00985 25712 ft 216 kts 230°
2026-04-28 00:41 -17.08042 -40.02163 25808 ft 220 kts 229°
2026-04-28 00:41 -17.09077 -40.03375 25903 ft 223 kts 230°
2026-04-28 00:41 -17.10108 -40.04587 26001 ft 226 kts 230°
2026-04-28 00:42 -17.11159 -40.05820 26136 ft 227 kts 229°
2026-04-28 00:42 -17.12206 -40.07048 26279 ft 227 kts 229°
2026-04-28 00:42 -17.13256 -40.08279 26423 ft 228 kts 230°
2026-04-28 00:42 -17.14324 -40.09534 26568 ft 228 kts 230°
2026-04-28 00:43 -17.15378 -40.10770 26710 ft 229 kts 230°
2026-04-28 00:43 -17.16443 -40.12022 26855 ft 229 kts 230°
2026-04-28 00:43 -17.17512 -40.13278 26997 ft 230 kts 230°
2026-04-28 00:43 -17.18572 -40.14524 27135 ft 230 kts 230°
2026-04-28 00:44 -17.19632 -40.15769 27286 ft 229 kts 230°
2026-04-28 00:44 -17.20699 -40.17023 27430 ft 229 kts 230°
2026-04-28 00:44 -17.21750 -40.18259 27578 ft 229 kts 230°
2026-04-28 00:44 -17.22814 -40.19509 27728 ft 228 kts 230°
2026-04-28 00:45 -17.23872 -40.20755 27876 ft 228 kts 230°
2026-04-28 00:45 -17.24924 -40.21992 28023 ft 228 kts 230°
2026-04-28 00:45 -17.25982 -40.23238 28049 ft 233 kts 230°
2026-04-28 00:45 -17.27074 -40.24527 28049 ft 240 kts 230°
2026-04-28 00:46 -17.28204 -40.25859 28053 ft 245 kts 230°
2026-04-28 00:46 -17.29341 -40.27197 28060 ft 250 kts 230°
2026-04-28 00:46 -17.30519 -40.28581 28057 ft 255 kts 230°
2026-04-28 00:46 -17.31707 -40.29980 28060 ft 260 kts 230°
2026-04-28 00:47 -17.32912 -40.31400 28060 ft 264 kts 230°
2026-04-28 00:47 -17.34142 -40.32849 28057 ft 268 kts 230°
2026-04-28 00:47 -17.35396 -40.34326 28058 ft 272 kts 230°
2026-04-28 00:47 -17.36657 -40.35814 28058 ft 275 kts 230°
2026-04-28 00:48 -17.37938 -40.37323 28060 ft 278 kts 230°
2026-04-28 00:48 -17.39217 -40.38832 28058 ft 280 kts 230°
2026-04-28 00:48 -17.40524 -40.40374 28053 ft 282 kts 230°
2026-04-28 00:48 -17.41825 -40.41909 28056 ft 284 kts 230°
2026-04-28 00:49 -17.43151 -40.43472 28056 ft 286 kts 230°
2026-04-28 00:49 -17.44484 -40.45047 28053 ft 288 kts 230°
2026-04-28 00:49 -17.45800 -40.46600 28055 ft 289 kts 230°
2026-04-28 00:49 -17.47140 -40.48183 28054 ft 290 kts 230°
2026-04-28 00:50 -17.48485 -40.49771 28051 ft 291 kts 230°
2026-04-28 00:50 -17.49826 -40.51356 28053 ft 292 kts 230°
2026-04-28 00:50 -17.51183 -40.52960 28054 ft 293 kts 230°
2026-04-28 00:50 -17.52094 -40.54036 28051 ft 293 kts 230°
2026-04-28 00:51 -17.53888 -40.56157 28052 ft 294 kts 230°
2026-04-28 00:51 -17.54812 -40.57250 28054 ft 294 kts 230°
2026-04-28 00:51 -17.56157 -40.58841 28054 ft 295 kts 230°
2026-04-28 00:51 -17.57971 -40.60987 28057 ft 295 kts 230°
2026-04-28 00:52 -17.58882 -40.62065 28052 ft 295 kts 230°
2026-04-28 00:52 -17.60246 -40.63680 28054 ft 296 kts 230°
2026-04-28 00:52 -17.61624 -40.65312 28055 ft 296 kts 230°
2026-04-28 00:52 -17.62977 -40.66915 28054 ft 296 kts 230°
2026-04-28 00:53 -17.64359 -40.68551 28054 ft 297 kts 230°
2026-04-28 00:53 -17.65713 -40.70156 28059 ft 297 kts 230°
2026-04-28 00:53 -17.67095 -40.71794 28054 ft 297 kts 230°
2026-04-28 00:53 -17.68462 -40.73414 28052 ft 297 kts 230°
2026-04-28 00:54 -17.69830 -40.75037 28051 ft 297 kts 230°
2026-04-28 00:54 -17.71193 -40.76653 28054 ft 296 kts 230°
2026-04-28 00:54 -17.72564 -40.78279 28051 ft 296 kts 230°
2026-04-28 00:54 -17.73928 -40.79898 28048 ft 296 kts 230°
2026-04-28 00:55 -17.75293 -40.81518 28051 ft 296 kts 230°
2026-04-28 00:55 -17.76659 -40.83141 28049 ft 296 kts 230°
2026-04-28 00:55 -17.78026 -40.84765 28054 ft 297 kts 230°
2026-04-28 00:55 -17.79399 -40.86396 28054 ft 297 kts 230°
2026-04-28 00:56 -17.80767 -40.88021 28054 ft 297 kts 230°
2026-04-28 00:56 -17.82135 -40.89648 28056 ft 297 kts 230°
2026-04-28 00:56 -17.83489 -40.91258 28053 ft 297 kts 230°
2026-04-28 00:56 -17.84859 -40.92887 28054 ft 297 kts 230°
2026-04-28 00:57 -17.86218 -40.94503 28054 ft 297 kts 230°
2026-04-28 00:57 -17.87591 -40.96138 28054 ft 297 kts 231°
2026-04-28 00:57 -17.88950 -40.97757 28052 ft 297 kts 231°
2026-04-28 00:57 -17.90325 -40.99393 28053 ft 297 kts 231°
2026-04-28 00:58 -17.91694 -41.01023 28052 ft 297 kts 231°
2026-04-28 00:58 -17.93050 -41.02638 28053 ft 297 kts 231°
2026-04-28 00:58 -17.94423 -41.04273 28052 ft 297 kts 231°
2026-04-28 00:58 -17.95803 -41.05917 28053 ft 297 kts 231°
2026-04-28 00:59 -17.97160 -41.07534 28059 ft 297 kts 231°
2026-04-28 00:59 -17.98543 -41.09184 28056 ft 297 kts 231°
2026-04-28 00:59 -17.99912 -41.10816 28057 ft 297 kts 231°
2026-04-28 00:59 -18.01289 -41.12458 28057 ft 297 kts 231°
2026-04-28 01:00 -18.02647 -41.14078 28057 ft 297 kts 231°
2026-04-28 01:00 -18.03995 -41.15687 28057 ft 297 kts 231°
2026-04-28 01:00 -18.05389 -41.17350 28057 ft 297 kts 231°
2026-04-28 01:00 -18.06753 -41.18979 28056 ft 297 kts 231°
2026-04-28 01:01 -18.08116 -41.20607 28056 ft 297 kts 231°
2026-04-28 01:01 -18.09482 -41.22239 28057 ft 296 kts 231°
2026-04-28 01:01 -18.10844 -41.23866 28056 ft 296 kts 231°
2026-04-28 01:01 -18.12189 -41.25473 28057 ft 296 kts 231°
2026-04-28 01:02 -18.13564 -41.27117 28057 ft 296 kts 231°
2026-04-28 01:02 -18.14930 -41.28751 28055 ft 296 kts 231°
2026-04-28 01:02 -18.16280 -41.30365 28058 ft 296 kts 231°
2026-04-28 01:02 -18.17648 -41.32002 28057 ft 296 kts 231°
2026-04-28 01:03 -18.18995 -41.33614 28054 ft 295 kts 231°
2026-04-28 01:03 -18.20367 -41.35256 28054 ft 296 kts 231°
2026-04-28 01:03 -18.21727 -41.36884 28054 ft 296 kts 231°
2026-04-28 01:03 -18.23079 -41.38504 28056 ft 296 kts 231°
2026-04-28 01:04 -18.24450 -41.40147 28048 ft 296 kts 231°
2026-04-28 01:04 -18.25794 -41.41755 28050 ft 295 kts 231°
2026-04-28 01:04 -18.27151 -41.43383 28046 ft 295 kts 231°
2026-04-28 01:04 -18.28510 -41.45012 28048 ft 296 kts 231°
2026-04-28 01:05 -18.29872 -41.46645 28054 ft 296 kts 231°
2026-04-28 01:05 -18.31231 -41.48274 28048 ft 296 kts 231°
2026-04-28 01:05 -18.32582 -41.49896 28050 ft 296 kts 231°
2026-04-28 01:05 -18.33943 -41.51530 28053 ft 296 kts 231°
2026-04-28 01:06 -18.35301 -41.53160 28047 ft 296 kts 231°
2026-04-28 01:06 -18.36659 -41.54790 28046 ft 296 kts 231°
2026-04-28 01:06 -18.38008 -41.56410 28048 ft 296 kts 231°
2026-04-28 01:06 -18.39374 -41.58051 28046 ft 296 kts 231°
2026-04-28 01:07 -18.40729 -41.59679 28042 ft 296 kts 231°
2026-04-28 01:07 -18.42078 -41.61301 28039 ft 296 kts 231°
2026-04-28 01:07 -18.43444 -41.62943 28040 ft 296 kts 231°
2026-04-28 01:07 -18.44340 -41.64018 28041 ft 296 kts 231°
2026-04-28 01:08 -18.46151 -41.66198 28039 ft 296 kts 231°
2026-04-28 01:08 -18.47510 -41.67833 28041 ft 296 kts 231°
2026-04-28 01:08 -18.48875 -41.69476 28040 ft 296 kts 231°
2026-04-28 01:08 -18.50221 -41.71095 28038 ft 296 kts 231°
2026-04-28 01:09 -18.51580 -41.72732 28034 ft 296 kts 231°
2026-04-28 01:09 -18.52936 -41.74365 28042 ft 296 kts 231°
2026-04-28 01:09 -18.54297 -41.76006 28038 ft 296 kts 231°
2026-04-28 01:09 -18.55657 -41.77644 28033 ft 296 kts 231°
2026-04-28 01:10 -18.57004 -41.79267 28035 ft 296 kts 231°
2026-04-28 01:10 -18.58360 -41.80903 28032 ft 296 kts 231°
2026-04-28 01:10 -18.59727 -41.82550 28034 ft 296 kts 232°
2026-04-28 01:10 -18.61069 -41.84170 28031 ft 296 kts 232°
2026-04-28 01:11 -18.62421 -41.85802 28030 ft 296 kts 232°
2026-04-28 01:11 -18.63780 -41.87441 28025 ft 295 kts 232°
2026-04-28 01:11 -18.65129 -41.89069 28027 ft 295 kts 232°
2026-04-28 01:11 -18.66481 -41.90703 28030 ft 295 kts 232°
2026-04-28 01:12 -18.67824 -41.92325 28028 ft 295 kts 232°
2026-04-28 01:12 -18.69178 -41.93961 28035 ft 295 kts 232°
2026-04-28 01:12 -18.70533 -41.95598 28030 ft 295 kts 232°
2026-04-28 01:12 -18.71868 -41.97212 28039 ft 295 kts 232°
2026-04-28 01:13 -18.73225 -41.98853 28030 ft 295 kts 232°
2026-04-28 01:13 -18.75915 -42.02106 28031 ft 295 kts 232°
2026-04-28 01:13 -18.77275 -42.03752 28036 ft 295 kts 232°
2026-04-28 01:14 -18.78604 -42.05361 28033 ft 295 kts 232°
2026-04-28 01:14 -18.79963 -42.07006 28033 ft 295 kts 232°
2026-04-28 01:14 -18.81315 -42.08644 28037 ft 295 kts 232°
2026-04-28 01:14 -18.82674 -42.10290 28037 ft 294 kts 232°
2026-04-28 01:15 -18.84019 -42.11920 28036 ft 295 kts 232°
2026-04-28 01:15 -18.85354 -42.13537 28034 ft 295 kts 232°
2026-04-28 01:15 -18.86709 -42.15181 28043 ft 295 kts 232°
2026-04-28 01:15 -18.88055 -42.16813 28037 ft 295 kts 232°
2026-04-28 01:16 -18.89396 -42.18439 28037 ft 295 kts 232°
2026-04-28 01:16 -18.90744 -42.20074 28038 ft 295 kts 232°
2026-04-28 01:16 -18.92100 -42.21716 28043 ft 295 kts 232°
2026-04-28 01:16 -18.93435 -42.23335 27962 ft 297 kts 232°
2026-04-28 01:17 -18.94791 -42.24995 27811 ft 297 kts 232°
2026-04-28 01:17 -18.96157 -42.26649 27550 ft 302 kts 232°
2026-04-28 01:17 -18.97559 -42.28342 27211 ft 308 kts 232°
2026-04-28 01:17 -18.98977 -42.30059 26878 ft 313 kts 232°
2026-04-28 01:18 -19.00419 -42.31809 26547 ft 317 kts 232°
2026-04-28 01:18 -19.01880 -42.33585 26222 ft 320 kts 232°
2026-04-28 01:18 -19.03349 -42.35370 25898 ft 323 kts 231°
2026-04-28 01:18 -19.04808 -42.37142 25580 ft 324 kts 231°
2026-04-28 01:19 -19.06293 -42.38944 25264 ft 325 kts 231°
2026-04-28 01:19 -19.07299 -42.40167 25051 ft 326 kts 231°
2026-04-28 01:19 -19.09272 -42.42566 24632 ft 326 kts 231°
2026-04-28 01:19 -19.10763 -42.44378 24332 ft 326 kts 231°
2026-04-28 01:20 -19.11749 -42.45581 24132 ft 326 kts 231°
2026-04-28 01:20 -19.13244 -42.47408 23825 ft 326 kts 231°
2026-04-28 01:20 -19.14725 -42.49217 23504 ft 326 kts 231°
2026-04-28 01:20 -19.16209 -42.51028 23153 ft 325 kts 231°
2026-04-28 01:21 -19.17688 -42.52834 22788 ft 325 kts 231°
2026-04-28 01:21 -19.19165 -42.54640 22435 ft 324 kts 231°
2026-04-28 01:21 -19.20627 -42.56426 22091 ft 323 kts 231°
2026-04-28 01:21 -19.22096 -42.58223 21744 ft 321 kts 231°
2026-04-28 01:22 -19.23558 -42.60011 21403 ft 320 kts 231°
2026-04-28 01:22 -19.25010 -42.61787 21062 ft 318 kts 231°
2026-04-28 01:22 -19.26450 -42.63549 20732 ft 316 kts 231°
2026-04-28 01:22 -19.27874 -42.65293 20402 ft 314 kts 231°
2026-04-28 01:23 -19.29298 -42.67038 20085 ft 311 kts 231°
2026-04-28 01:23 -19.30723 -42.68781 19759 ft 309 kts 230°
2026-04-28 01:23 -19.32121 -42.70492 19430 ft 307 kts 231°
2026-04-28 01:23 -19.33501 -42.72185 19121 ft 305 kts 231°
2026-04-28 01:24 -19.34886 -42.73882 18808 ft 303 kts 231°
2026-04-28 01:24 -19.36275 -42.75584 18498 ft 301 kts 231°
2026-04-28 01:24 -19.37626 -42.77243 18166 ft 299 kts 231°
2026-04-28 01:24 -19.38995 -42.78923 17809 ft 297 kts 230°
2026-04-28 01:25 -19.40343 -42.80577 17458 ft 295 kts 230°
2026-04-28 01:25 -19.41674 -42.82209 17110 ft 293 kts 230°
2026-04-28 01:25 -19.43005 -42.83844 16768 ft 291 kts 230°
2026-04-28 01:25 -19.44310 -42.85447 16436 ft 289 kts 230°
2026-04-28 01:26 -19.45620 -42.87056 16134 ft 286 kts 230°
2026-04-28 01:26 -19.46927 -42.88661 15844 ft 283 kts 230°
2026-04-28 01:26 -19.48204 -42.90231 15561 ft 280 kts 230°
2026-04-28 01:26 -19.49472 -42.91788 15280 ft 278 kts 229°
2026-04-28 01:27 -19.50720 -42.93325 15005 ft 276 kts 229°
2026-04-28 01:27 -19.51976 -42.94871 14729 ft 274 kts 229°
2026-04-28 01:27 -19.53217 -42.96396 14476 ft 272 kts 229°
2026-04-28 01:27 -19.54441 -42.97902 14256 ft 269 kts 229°
2026-04-28 01:28 -19.55656 -42.99397 14027 ft 267 kts 229°
2026-04-28 01:28 -19.56875 -43.00899 13794 ft 265 kts 229°
2026-04-28 01:28 -19.58074 -43.02375 13538 ft 263 kts 229°
2026-04-28 01:28 -19.59257 -43.03831 13286 ft 261 kts 229°
2026-04-28 01:29 -19.60440 -43.05288 13034 ft 260 kts 229°
2026-04-28 01:29 -19.61613 -43.06735 12789 ft 259 kts 229°
2026-04-28 01:29 -19.62778 -43.08171 12539 ft 257 kts 229°
2026-04-28 01:29 -19.63945 -43.09611 12291 ft 256 kts 229°
2026-04-28 01:30 -19.65099 -43.11033 12048 ft 254 kts 229°
2026-04-28 01:30 -19.66238 -43.12490 11801 ft 253 kts 234°
2026-04-28 01:30 -19.66958 -43.14197 11558 ft 252 kts 250°
2026-04-28 01:30 -19.67801 -43.15792 11318 ft 250 kts 233°
2026-04-28 01:31 -19.68873 -43.17262 11090 ft 248 kts 231°
2026-04-28 01:31 -19.69940 -43.18688 10902 ft 246 kts 230°
2026-04-28 01:31 -19.70992 -43.20094 10722 ft 244 kts 230°
2026-04-28 01:31 -19.72044 -43.21500 10538 ft 243 kts 230°
2026-04-28 01:32 -19.73095 -43.22905 10346 ft 242 kts 230°
2026-04-28 01:32 -19.74135 -43.24301 10164 ft 241 kts 230°
2026-04-28 01:32 -19.75160 -43.25683 10084 ft 236 kts 230°
2026-04-28 01:32 -19.76167 -43.27039 10081 ft 231 kts 230°
2026-04-28 01:33 -19.77167 -43.28375 10079 ft 233 kts 230°
2026-04-28 01:33 -19.78173 -43.29724 10083 ft 234 kts 230°
2026-04-28 01:33 -19.79184 -43.31080 10080 ft 235 kts 230°
2026-04-28 01:33 -19.80196 -43.32437 10083 ft 235 kts 230°
2026-04-28 01:34 -19.81213 -43.33800 10082 ft 235 kts 230°
2026-04-28 01:34 -19.82231 -43.35166 10082 ft 235 kts 230°
2026-04-28 01:34 -19.83234 -43.36512 10085 ft 234 kts 230°
2026-04-28 01:34 -19.84255 -43.37883 10084 ft 234 kts 230°
2026-04-28 01:35 -19.85267 -43.39243 10083 ft 234 kts 230°
2026-04-28 01:35 -19.86275 -43.40595 10084 ft 234 kts 230°
2026-04-28 01:35 -19.87281 -43.41942 10089 ft 234 kts 230°
2026-04-28 01:35 -19.88290 -43.43294 10088 ft 234 kts 230°
2026-04-28 01:36 -19.89306 -43.44654 10087 ft 234 kts 230°
2026-04-28 01:36 -19.90317 -43.46006 10088 ft 234 kts 230°
2026-04-28 01:36 -19.91338 -43.47371 10089 ft 234 kts 230°
2026-04-28 01:36 -19.92351 -43.48726 10090 ft 234 kts 230°
2026-04-28 01:37 -19.93351 -43.50066 10094 ft 234 kts 230°
2026-04-28 01:37 -19.94365 -43.51422 10093 ft 234 kts 230°
2026-04-28 01:37 -19.95374 -43.52769 10087 ft 233 kts 230°
2026-04-28 01:37 -19.96392 -43.54129 10090 ft 233 kts 230°
2026-04-28 01:38 -19.97314 -43.55360 10085 ft 233 kts 230°
2026-04-28 01:38 -19.98321 -43.56703 10086 ft 233 kts 230°
2026-04-28 01:38 -19.99326 -43.58045 10090 ft 233 kts 230°
2026-04-28 01:38 -20.00340 -43.59398 10089 ft 232 kts 231°
2026-04-28 01:39 -20.01286 -43.60765 10080 ft 233 kts 242°
2026-04-28 01:39 -20.01552 -43.62461 10084 ft 235 kts 277°
2026-04-28 01:39 -20.01205 -43.63966 10085 ft 234 kts 286°
2026-04-28 01:40 -20.00791 -43.65404 10090 ft 233 kts 286°
2026-04-28 01:40 -20.00311 -43.67051 10093 ft 233 kts 287°
2026-04-28 01:40 -19.99829 -43.68690 10097 ft 233 kts 286°
2026-04-28 01:40 -19.99345 -43.70332 10100 ft 232 kts 286°
2026-04-28 01:41 -19.98860 -43.71974 10099 ft 232 kts 287°
2026-04-28 01:41 -19.98369 -43.73623 9960 ft 234 kts 287°
2026-04-28 01:41 -19.97876 -43.75272 9783 ft 234 kts 287°
2026-04-28 01:41 -19.97387 -43.76907 9606 ft 231 kts 287°
2026-04-28 01:42 -19.96904 -43.78532 9432 ft 229 kts 287°
2026-04-28 01:42 -19.96431 -43.80130 9258 ft 227 kts 287°
2026-04-28 01:42 -19.95953 -43.81747 9082 ft 226 kts 287°
2026-04-28 01:42 -19.95484 -43.83330 8910 ft 225 kts 287°
2026-04-28 01:43 -19.95017 -43.84913 8744 ft 225 kts 287°
2026-04-28 01:43 -19.94544 -43.86510 8566 ft 224 kts 287°
2026-04-28 01:43 -19.94083 -43.88072 8395 ft 223 kts 287°
2026-04-28 01:43 -19.93616 -43.89650 8228 ft 222 kts 287°
2026-04-28 01:44 -19.93153 -43.91217 8061 ft 222 kts 287°
2026-04-28 01:44 -19.92689 -43.92787 7892 ft 221 kts 287°
2026-04-28 01:44 -19.92230 -43.94342 7733 ft 221 kts 287°
2026-04-28 01:44 -19.91770 -43.95900 7558 ft 220 kts 287°
2026-04-28 01:45 -19.91314 -43.97441 7489 ft 214 kts 287°
2026-04-28 01:45 -19.90874 -43.98935 7454 ft 209 kts 287°
2026-04-28 01:45 -19.90581 -43.99925 7341 ft 211 kts 287°
2026-04-28 01:45 -19.90139 -44.01414 7180 ft 212 kts 287°
2026-04-28 01:46 -19.89540 -44.03429 6993 ft 211 kts 287°
2026-04-28 01:46 -19.89107 -44.04884 6991 ft 205 kts 287°
2026-04-28 01:46 -19.88670 -44.06359 6985 ft 203 kts 286°
2026-04-28 01:46 -19.88248 -44.07790 6983 ft 205 kts 287°
2026-04-28 01:47 -19.87818 -44.09245 6952 ft 208 kts 287°
2026-04-28 01:47 -19.87513 -44.10232 6868 ft 211 kts 291°
2026-04-28 01:47 -19.86577 -44.11414 6738 ft 215 kts 330°
2026-04-28 01:47 -19.85136 -44.11714 6612 ft 216 kts
2026-04-28 01:48 -19.83699 -44.11259 6500 ft 218 kts 21°
2026-04-28 01:48 -19.82268 -44.10693 6384 ft 219 kts 21°
2026-04-28 01:48 -19.80836 -44.10119 6231 ft 220 kts 21°
2026-04-28 01:48 -19.79594 -44.09253 6048 ft 215 kts 52°
2026-04-28 01:49 -19.79119 -44.07789 5869 ft 212 kts 91°
2026-04-28 01:49 -19.79617 -44.06362 5697 ft 207 kts 130°
2026-04-28 01:49 -19.80676 -44.05405 5490 ft 193 kts 140°
2026-04-28 01:49 -19.81556 -44.04394 5274 ft 182 kts 126°
2026-04-28 01:50 -19.82185 -44.03265 5057 ft 165 kts 119°
2026-04-28 01:50 -19.82664 -44.02238 4747 ft 151 kts 115°
2026-04-28 01:50 -19.82941 -44.01585 4558 ft 129 kts 114°
2026-04-28 01:50 -19.83285 -44.00522 4189 ft 113 kts 102°
2026-04-28 01:51 -19.83448 -43.99680 3898 ft 121 kts 101°
2026-04-28 01:51 -19.83678 -43.98822 3620 ft 122 kts 107°
2026-04-28 01:51 -19.83975 -43.97984 3340 ft 116 kts 110°
2026-04-28 01:51 -19.84275 -43.97222 3065 ft 109 kts 110°
2026-04-28 01:52 -19.84549 -43.96486 2860 ft 106 kts 108°
2026-04-28 01:52 -19.84807 -43.95772 2621 ft 96 kts 109°
2026-04-28 01:52 -19.85010 -43.95199 2599 ft 72 kts 108°
2026-04-28 01:52 -19.85148 -43.94816 2595 ft 22 kts 110°
2026-04-28 01:53 -19.85165 -43.94738 2598 ft 7 kts 96°
2026-04-28 01:53 -19.85186 -43.94725 2595 ft 0 kts 274°
2026-04-28 01:53 -19.85169 -43.94771 2588 ft 8 kts 296°
2026-04-28 01:53 -19.85154 -43.94803 2598 ft 4 kts 293°
2026-04-28 01:54 -19.85152 -43.94808 2598 ft 0 kts 291°
2026-04-28 01:54 -19.85147 -43.94825 2595 ft 8 kts 286°
2026-04-28 01:55 -19.85120 -43.94898 2598 ft 0 kts 290°
2026-04-28 01:55 -19.85114 -43.94917 2595 ft 0 kts 288°
2026-04-28 01:56 -19.85106 -43.94945 2598 ft 15 kts 288°
2026-04-28 01:56 -19.85091 -43.94997 2598 ft 7 kts 271°
2026-04-28 01:56 -19.85095 -43.95045 2598 ft 9 kts 262°
2026-04-28 01:56 -19.85099 -43.95082 2598 ft 2 kts 261°
2026-04-28 01:57 -19.85104 -43.95097 2599 ft 3 kts 234°
2026-04-28 01:57 -19.85133 -43.95109 2603 ft 8 kts 180°
2026-04-28 01:57 -19.85191 -43.95101 2613 ft 3 kts 172°
2026-04-28 01:57 -19.85212 -43.95099 2616 ft 1 kts 178°
2026-04-28 01:58 -19.85227 -43.95096 2616 ft 4 kts 169°
2026-04-28 01:58 -19.85232 -43.95094 2616 ft 0 kts 153°
2026-04-28 01:58 -19.85240 -43.95085 2617 ft 0 kts 108°
2026-04-28 01:58 -19.85243 -43.95070 2617 ft 5 kts 101°
2026-04-28 01:59 -19.85251 -43.95040 2616 ft 7 kts 107°
2026-04-28 01:59 -19.85269 -43.94980 2616 ft 9 kts 108°
2026-04-28 01:59 -19.85289 -43.94910 2616 ft 7 kts 109°
2026-04-28 01:59 -19.85304 -43.94859 2616 ft 6 kts 106°
2026-04-28 02:00 -19.85322 -43.94807 2616 ft 7 kts 104°
2026-04-28 02:00 -19.85335 -43.94772 2616 ft 6 kts 114°
2026-04-28 02:00 -19.85346 -43.94745 2616 ft 6 kts 108°
2026-04-28 02:00 -19.85348 -43.94738 2616 ft 2 kts 108°